Wind_Speed
19 16 14 12 11 9 8 7 7 6 5 4 3 3 3 2 2 3 4 4 4 4 4 4 5 6 6 6 6 6 6 7 8 9 10 11 12 14 15 16 18 20 20
21 18 15 15 13 11 10 9 8 7 6 5 3 3 4 3 3 3 4 4 3 3 3 4 5 5 5 6 6 6 6 7 8 9 10 11 13 15 16 17 19 20 20
23 20 18 15 14 13 11 10 9 8 7 5 4 4 4 3 3 4 4 4 3 3 3 3 4 4 5 5 5 6 7 8 9 10 10 12 14 15 16 17 19 19 21
24 22 21 17 15 13 12 11 10 9 8 7 6 5 5 5 4 4 4 4 3 2 2 2 3 3 4 4 5 6 8 9 11 11 12 13 14 14 15 18 18 19 21
25 23 21 20 17 15 13 12 11 11 10 8 8 7 7 6 5 5 4 4 3 2 2 1 2 3 4 5 6 7 8 9 10 11 13 14 15 15 17 18 19 20 23
27 24 20 20 18 17 14 13 12 11 11 10 9 9 8 8 6 5 4 4 3 2 2 1 1 2 4 6 7 7 8 9 10 12 14 15 16 17 19 19 20 21 23
29 26 22 20 18 16 15 14 13 12 12 12 11 11 10 9 7 5 5 4 4 4 3 2 3 4 5 6 6 7 8 10 12 13 14 15 18 20 21 20 20 21 23
32 27 24 22 19 17 15 15 14 13 14 14 13 13 12 10 8 7 6 6 6 5 5 4 4 4 5 6 6 7 9 11 12 14 15 16 19 21 22 21 21 21 23
33 30 27 24 21 19 17 15 15 15 15 15 15 15 14 12 9 8 7 7 7 6 6 5 5 5 5 6 7 8 9 11 14 14 16 18 21 23 24 23 23 23 23
37 33 28 25 23 22 19 17 17 15 16 16 17 16 15 13 11 10 8 8 7 7 6 6 6 5 6 6 7 9 10 12 14 16 17 19 21 24 25 24 23 25 26
38 34 31 26 23 21 21 19 19 18 18 18 17 18 17 15 13 11 10 9 8 8 7 7 6 6 6 7 8 10 12 14 16 17 19 20 22 25 26 26 26 26 27
40 36 32 28 25 22 21 21 21 20 20 19 18 18 17 16 14 12 11 10 10 9 9 9 9 8 8 9 10 11 13 15 17 19 20 21 23 25 29 28 27 27 27
34 35 32 29 26 24 21 22 22 22 21 21 20 19 18 17 16 15 14 13 12 11 11 10 10 11 11 12 13 13 15 17 19 21 21 22 24 26 29 30 28 28 27
27 32 30 29 26 24 22 22 22 24 23 22 22 22 21 20 18 18 16 16 15 14 13 12 12 13 14 14 15 16 18 19 20 22 23 24 25 27 29 30 30 30 29
38 32 35 34 26 24 23 23 22 25 25 24 23 24 24 23 21 20 19 19 18 17 16 16 15 16 17 17 18 19 20 22 23 24 25 26 28 28 30 32 32 31 31
35 36 37 26 25 25 26 26 24 24 26 25 26 25 26 26 24 22 21 21 20 20 19 18 18 18 18 19 20 21 22 23 25 26 27 28 29 31 32 34 35 33 32
33 35 40 29 26 27 26 28 26 26 26 27 28 28 28 28 28 25 23 23 23 22 22 21 20 21 21 21 22 23 24 25 26 27 28 29 30 32 35 36 37 34 33
48 43 33 31 29 25 29 30 30 29 28 30 29 30 31 30 29 29 26 25 24 24 24 24 23 23 23 24 25 25 25 27 28 29 31 33 34 34 34 37 38 36 33
52 47 44 38 34 31 35 35 33 33 31 31 31 33 32 32 31 30 29 28 27 26 27 27 26 25 26 27 27 28 29 29 30 31 33 34 35 37 38 36 32 34 34
45 49 45 43 41 40 38 39 37 37 33 31 32 33 32 33 33 32 31 32 31 29 29 30 29 28 28 29 30 31 32 32 33 35 35 36 37 39 41 37 36 33 33
49 43 48 43 41 43 40 40 37 37 36 34 32 34 29 30 34 33 34 35 34 33 34 34 34 32 32 33 33 34 34 35 36 38 38 38 37 40 39 39 38 34 35
48 49 49 49 45 42 41 42 40 40 35 35 36 35 34 34 31 38 39 38 37 37 39 38 39 38 36 37 39 38 36 36 38 40 41 41 40 39 39 39 39 36 37
48 49 49 49 53 43 42 43 42 40 41 38 40 40 38 36 39 37 38 39 46 48 48 44 42 43 41 42 44 46 45 43 40 39 40 41 41 39 39 39 36 37 38
49 43 47 50 48 55 46 42 42 42 41 41 40 40 41 40 41 40 40 42 39 43 49 50 49 48 49 50 48 45 48 47 48 47 41 43 42 41 39 38 37 39 40
45 50 49 45 48 46 51 55 51 44 44 44 45 45 45 45 45 46 45 45 45 44 47 50 53 54 56 55 54 54 52 49 49 47 45 44 44 42 39 38 39 41 43
27 34 46 48 48 47 48 49 50 52 51 47 49 48 47 46 48 48 48 50 50 54 55 57 59 59 59 56 55 55 53 49 46 45 45 45 44 43 41 40 41 42 46
Wind_Direction
227 231 230 227 227 233 239 239 238 233 230 236 225 239 264 268 272 280 292 309 328 338 346 359 15 19 19 25 29 28 25 25 18 16 17 14 11 7 5 1 2 2 3
227 229 232 231 229 229 232 234 233 230 226 226 220 233 241 241 254 276 287 299 318 336 342 2 22 19 22 23 23 17 18 11 8 4 9 7 6 3 2 360 359 359 360
225 227 230 230 226 227 227 233 233 227 229 222 219 229 231 247 258 265 280 289 304 325 340 351 22 17 24 18 19 14 9 359 356 357 1 1 3 0 358 356 354 356 354
224 225 228 228 227 226 228 232 232 232 227 223 228 229 239 249 256 263 271 284 286 295 335 351 24 19 11 12 14 12 359 353 350 357 358 357 359 356 354 353 351 351 352
222 225 227 228 230 228 227 230 231 233 231 226 230 232 238 245 250 264 271 277 280 285 289 355 14 14 359 1 357 353 352 348 350 356 355 356 354 351 350 349 346 350 349
217 221 222 228 228 227 227 224 230 231 235 230 232 235 239 238 237 249 263 274 279 272 273 315 331 347 348 351 351 348 351 350 352 355 355 353 352 348 346 344 343 346 347
216 217 218 223 228 228 228 233 231 233 233 233 230 233 235 238 234 240 250 252 249 253 261 277 303 336 342 347 350 346 352 351 354 350 351 351 349 346 343 341 340 341 344
211 213 218 223 229 232 230 233 236 238 239 235 233 231 234 233 232 241 244 247 246 248 262 278 302 327 335 343 341 343 349 349 348 348 347 346 347 343 341 337 337 338 338
210 213 218 226 231 236 240 238 239 238 239 241 235 233 232 234 231 238 243 245 253 257 265 278 299 322 330 338 332 336 340 347 345 344 341 343 346 343 340 336 336 337 334
209 211 216 223 232 237 239 247 249 246 242 239 236 234 236 236 234 236 242 252 253 263 269 283 296 307 315 319 323 329 336 340 339 339 340 342 345 341 337 337 335 334 332
211 211 215 218 227 238 243 242 250 250 247 244 236 236 236 237 236 238 238 248 260 265 272 279 288 296 306 312 318 324 331 332 333 335 337 336 337 342 340 337 334 333 331
207 210 214 217 224 233 243 247 247 250 247 245 243 240 243 246 246 247 249 251 258 263 275 285 293 299 299 303 311 319 321 324 327 328 332 331 332 335 338 335 333 332 329
200 210 215 220 225 232 238 247 248 253 250 246 244 246 249 252 258 260 265 269 271 273 276 282 290 294 298 303 307 310 315 318 323 324 326 323 327 330 337 334 331 330 328
215 218 217 222 227 233 236 241 243 250 253 249 246 245 248 252 256 261 265 272 276 282 283 285 288 292 296 298 304 309 313 315 315 318 318 320 322 325 327 332 328 328 325
225 229 235 228 229 235 240 244 244 245 251 250 249 248 247 250 251 256 261 265 272 275 280 283 286 292 296 300 303 305 308 310 312 313 316 316 317 319 321 325 325 323 322
221 226 232 214 231 236 244 250 250 247 249 249 248 247 250 251 252 255 260 267 272 276 277 280 284 286 291 295 299 300 302 305 307 308 310 310 312 315 317 320 322 320 319
238 235 226 232 235 239 245 252 255 253 253 251 248 247 246 250 252 254 257 262 270 274 274 278 280 284 287 290 292 295 297 299 303 304 304 306 309 311 314 319 319 318 316
249 244 239 228 222 234 247 255 260 258 256 253 251 250 251 250 253 256 258 262 267 271 273 277 282 284 287 288 290 292 293 296 300 301 303 308 309 308 310 314 314 315 314
248 251 256 259 260 254 256 260 262 263 259 256 254 250 254 256 257 260 261 264 266 268 270 275 280 284 287 288 291 292 293 295 298 299 301 304 306 309 310 311 307 310 309
253 249 252 254 258 258 255 259 261 262 260 255 256 257 258 261 263 264 264 266 269 271 271 274 276 281 284 286 289 292 292 295 297 299 302 305 305 309 309 309 307 307 307
254 252 253 256 253 258 262 259 261 260 259 259 260 257 260 264 260 260 262 264 266 269 270 272 275 279 283 285 287 288 292 293 295 297 300 301 303 308 305 304 305 307 307
247 251 249 251 253 254 256 260 260 258 257 258 258 260 260 263 268 262 262 266 265 266 268 272 275 277 282 285 287 288 288 291 293 296 299 298 301 303 300 301 303 305 310
249 251 249 251 248 252 254 257 260 260 262 259 261 262 264 262 260 263 267 266 264 263 270 276 277 280 282 288 289 290 290 291 290 292 293 293 297 297 294 297 297 300 305
248 254 251 245 250 250 245 254 257 256 255 256 253 252 257 259 262 264 265 266 271 272 272 278 281 283 284 290 289 288 290 292 292 292 291 294 294 294 294 296 296 301 308
254 245 250 248 244 251 250 253 254 256 258 259 259 256 257 261 264 267 269 272 270 270 271 271 273 276 281 285 287 288 288 289 291 290 292 294 294 291 293 295 295 300 306
248 250 249 251 251 250 253 255 255 255 254 257 256 259 259 262 266 267 271 271 271 275 279 281 282 283 284 284 283 283 285 286 287 288 290 292 291 290 291 294 296 301 303
Height
5893 5895 5897 5898 5900 5901 5903 5904 5905 5905 5905 5906 5905 5905 5905 5905 5905 5905 5905 5904 5904 5904 5902 5901 5900 5900 5899 5899 5898 5897 5897 5896 5895 5894 5892 5890 5889 5887 5886 5884 5883 5881 5878
5891 5893 5895 5897 5898 5899 5900 5902 5903 5904 5905 5905 5905 5905 5905 5905 5905 5904 5904 5904 5904 5903 5902 5901 5900 5900 5899 5898 5897 5896 5896 5895 5895 5893 5891 5890 5888 5887 5885 5884 5882 5880 5877
5888 5891 5893 5895 5897 5897 5898 5900 5901 5902 5903 5903 5904 5904 5905 5904 5904 5904 5904 5903 5903 5902 5901 5900 5899 5899 5898 5897 5896 5895 5896 5895 5894 5893 5891 5889 5888 5886 5884 5883 5881 5879 5877
5885 5888 5891 5893 5895 5896 5897 5898 5899 5901 5902 5902 5903 5904 5904 5904 5904 5904 5903 5903 5902 5901 5900 5899 5898 5898 5897 5896 5895 5895 5894 5894 5893 5891 5890 5889 5887 5886 5884 5882 5880 5878 5876
5882 5885 5888 5891 5893 5894 5895 5896 5898 5899 5900 5900 5902 5902 5903 5903 5902 5903 5902 5901 5901 5900 5899 5898 5897 5896 5896 5895 5894 5894 5894 5893 5892 5891 5889 5888 5886 5885 5883 5881 5879 5876 5874
5878 5882 5885 5889 5891 5892 5893 5894 5896 5897 5898 5899 5900 5900 5901 5901 5901 5901 5901 5900 5900 5899 5897 5896 5896 5895 5895 5894 5893 5893 5892 5892 5891 5889 5888 5887 5885 5883 5881 5879 5877 5875 5872
5875 5878 5882 5886 5889 5890 5891 5892 5893 5895 5896 5897 5898 5898 5899 5899 5899 5899 5898 5898 5898 5897 5897 5896 5895 5894 5893 5892 5892 5892 5891 5890 5889 5888 5887 5885 5884 5882 5879 5877 5875 5872 5870
5870 5874 5878 5882 5886 5888 5889 5890 5891 5892 5893 5894 5895 5896 5897 5897 5897 5897 5897 5897 5896 5896 5895 5894 5893 5892 5892 5891 5891 5890 5889 5888 5887 5886 5885 5884 5882 5880 5878 5875 5873 5870 5868
5864 5869 5874 5878 5881 5884 5887 5888 5889 5889 5890 5892 5893 5894 5895 5895 5895 5895 5895 5895 5895 5894 5894 5893 5892 5891 5890 5889 5890 5889 5887 5887 5885 5884 5883 5881 5879 5877 5875 5873 5870 5868 5865
5858 5863 5868 5873 5877 5880 5883 5885 5887 5886 5887 5889 5890 5892 5893 5893 5893 5893 5893 5893 5892 5892 5892 5891 5890 5889 5889 5888 5887 5887 5885 5885 5884 5883 5881 5879 5877 5875 5872 5870 5868 5865 5862
5853 5858 5863 5867 5872 5875 5878 5881 5883 5884 5884 5885 5887 5889 5890 5890 5890 5890 5890 5890 5890 5890 5889 5889 5888 5887 5887 5886 5885 5884 5883 5882 5881 5879 5877 5876 5874 5871 5869 5866 5864 5861 5858
5845 5851 5857 5862 5866 5870 5874 5877 5880 5881 5882 5883 5884 5885 5886 5887 5888 5888 5888 5887 5887 5887 5887 5886 5886 5885 5884 5883 5882 5881 5880 5879 5878 5876 5874 5872 5870 5868 5865 5863 5860 5857 5855
5839 5844 5852 5857 5861 5865 5870 5872 5875 5877 5878 5879 5881 5882 5882 5883 5884 5885 5885 5885 5885 5883 5883 5883 5883 5882 5881 5880 5880 5879 5878 5877 5875 5873 5871 5869 5867 5864 5861 5858 5856 5853 5850
5836 5838 5846 5851 5857 5861 5865 5867 5869 5871 5873 5874 5876 5878 5879 5879 5880 5882 5882 5882 5882 5881 5880 5880 5879 5879 5878 5878 5876 5875 5874 5873 5872 5870 5868 5865 5863 5860 5858 5855 5851 5848 5845
5834 5836 5843 5846 5853 5856 5859 5862 5864 5866 5868 5870 5870 5873 5874 5875 5877 5878 5879 5879 5879 5878 5877 5876 5876 5875 5875 5874 5874 5872 5872 5870 5868 5866 5863 5860 5858 5855 5853 5850 5847 5844 5840
5831 5836 5839 5840 5845 5850 5853 5857 5859 5861 5863 5865 5866 5867 5869 5870 5871 5873 5874 5875 5875 5874 5874 5874 5873 5872 5871 5870 5869 5869 5868 5866 5865 5863 5860 5857 5853 5850 5847 5844 5841 5838 5835
5826 5833 5834 5837 5840 5845 5848 5851 5853 5856 5858 5860 5861 5861 5863 5864 5866 5867 5869 5870 5870 5870 5870 5869 5868 5868 5867 5865 5864 5864 5862 5861 5859 5857 5855 5852 5849 5845 5841 5837 5834 5832 5829
5821 5823 5827 5829 5832 5839 5842 5845 5848 5850 5852 5853 5855 5855 5856 5859 5861 5862 5863 5863 5864 5864 5864 5864 5864 5862 5861 5860 5859 5858 5857 5855 5854 5851 5848 5845 5842 5840 5837 5833 5828 5825 5823
5816 5820 5823 5825 5827 5832 5837 5840 5842 5843 5846 5846 5849 5849 5850 5852 5854 5856 5856 5857 5857 5858 5858 5857 5857 5856 5855 5854 5853 5852 5850 5849 5847 5844 5841 5839 5836 5832 5830 5827 5823 5820 5817
5807 5814 5819 5822 5824 5826 5831 5834 5836 5837 5839 5840 5841 5843 5844 5844 5846 5848 5850 5849 5850 5850 5850 5850 5849 5849 5848 5847 5846 5845 5844 5842 5840 5836 5834 5831 5828 5825 5822 5819 5815 5814 5810
5802 5807 5810 5815 5817 5820 5822 5826 5828 5830 5831 5833 5835 5836 5836 5837 5839 5840 5840 5841 5842 5842 5842 5841 5842 5840 5840 5839 5839 5838 5836 5835 5832 5829 5827 5824 5820 5818 5814 5811 5808 5806 5802
5794 5799 5802 5806 5809 5813 5816 5819 5821 5822 5825 5826 5827 5828 5829 5830 5830 5831 5833 5833 5833 5832 5833 5832 5833 5833 5832 5830 5829 5829 5829 5829 5825 5821 5817 5814 5811 5809 5807 5803 5800 5797 5794
5788 5791 5796 5798 5800 5804 5808 5811 5814 5815 5816 5819 5819 5820 5820 5821 5821 5823 5823 5823 5823 5823 5824 5823 5824 5824 5823 5822 5820 5818 5817 5818 5816 5814 5810 5807 5804 5801 5799 5795 5793 5789 5786
5782 5784 5786 5791 5793 5794 5797 5801 5803 5805 5807 5810 5811 5812 5811 5811 5812 5813 5813 5814 5815 5815 5815 5814 5814 5814 5813 5812 5810 5808 5807 5805 5804 5805 5802 5797 5793 5791 5788 5786 5785 5782 5778
5772 5775 5777 5779 5784 5787 5787 5792 5795 5795 5797 5798 5799 5801 5802 5803 5803 5803 5805 5805 5805 5804 5804 5804 5804 5803 5802 5801 5799 5798 5796 5794 5793 5791 5790 5786 5783 5781 5778 5778 5775 5772 5768
5763 5766 5768 5770 5772 5776 5778 5780 5783 5785 5786 5787 5789 5791 5792 5794 5794 5794 5793 5792 5792 5792 5791 5791 5791 5790 5789 5789 5787 5786 5785 5783 5782 5780 5778 5776 5772 5770 5769 5767 5764 5762 5758